User: anonymous   Login
Location: Unspecified
(0.0000°N, 0.0000°E)
Time: 07:45:09
(UTC+02:00)
Language:

Iridium 4 Rocket - Orbit

View from above orbital plane
View from above orbital plane
View from above satellite
View from above satellite

Ground track
Ground track

The orbit data is extracted from the following two-line orbital elements,

1 24797U 97020F   16208.37649338  .00000110  00000-0  18829-4 0  9991
2 24797  86.8975 112.7276 0224382 324.0699 171.8913 14.43887516 10934
Epoch (UTC): 26 July 2016 09:02:09
Eccentricity: 0.0224382
inclination: 86.8975°
perigee height: 586 km
apogee height: 905 km
right ascension of ascending node: 112.7276°
argument of perigee: 324.0699°
revolutions per day: 14.43887516
mean anomaly at epoch: 171.8913°
orbit number at epoch: 1093

The dashed part of the orbit path shows where the satellite is in the earth's shadow,  

DLR